Location: Albany
(35.0170°S, 117.8920°E)
Time: 16:45:33
(UTC+08:00)

Transit 2A - Pass Details

Date: 29 January 2021
Orbit: 601 x 958 km, 66.7° (Epoch: 02 March)

Event Time Altitude Azimuth Distance (km) Brightness Sun altitude
Rises 15:07:45 0° 309° (NW) 2,974 9.6 49.4°
Reaches altitude 10° 15:10:09 10° 299° (WNW) 2,116 9.2 48.9°
Maximum altitude 15:14:28 32° 235° (SW) 1,228 8.1 48.1°
Drops below altitude 10° 15:19:14 10° 171° (S) 2,341 8.5 47.1°
Sets 15:22:02 0° 161° (SSE) 3,343 9.1 46.6°
